Time,TemperatureF,DewpointF,PressureIn,WindDirection,WindDirectionDegrees,WindSpeedMPH,WindSpeedGustMPH,Humidity,HourlyPrecipIn,Conditions,Clouds,dailyrainin,SolarRadiationWatts/m^2,SoftwareType,DateUTC
2013-06-14 00:02:00,64.0,36.0,-100.00,ENE,61,3.0,5.0,35,0.00,,,0.00,41.000000,,2013-06-14 08:02:00,
2013-06-14 00:12:00,64.0,36.0,-100.00,ENE,61,3.0,5.0,35,0.00,,,0.00,41.000000,,2013-06-14 08:12:00,
2013-06-14 00:22:00,64.0,36.0,-100.00,ENE,61,3.0,5.0,35,0.00,,,0.00,41.000000,,2013-06-14 08:22:00,
2013-06-14 00:53:00,56.0,39.0,-100.00,NE,50,2.0,3.0,52,0.00,,,0.00,9.000000,,2013-06-14 08:53:00,
2013-06-14 01:02:00,56.0,39.0,-100.00,NE,50,2.0,3.0,52,0.00,,,0.00,9.000000,,2013-06-14 09:02:00,
2013-06-14 01:12:00,56.0,39.0,-100.00,NE,50,2.0,3.0,52,0.00,,,0.00,9.000000,,2013-06-14 09:12:00,
2013-06-14 01:22:00,56.0,39.0,-100.00,NE,50,2.0,3.0,52,0.00,,,0.00,9.000000,,2013-06-14 09:22:00,
2013-06-14 01:53:00,52.0,39.0,-100.00,ENE,58,2.0,4.0,61,0.00,,,0.00,3.000000,,2013-06-14 09:53:00,
2013-06-14 02:01:00,52.0,39.0,-100.00,ENE,58,2.0,4.0,61,0.00,,,0.00,3.000000,,2013-06-14 10:01:00,
2013-06-14 02:11:00,52.0,39.0,-100.00,ENE,58,2.0,4.0,61,0.00,,,0.00,3.000000,,2013-06-14 10:11:00,
2013-06-14 02:22:00,52.0,39.0,-100.00,ENE,58,2.0,4.0,61,0.00,,,0.00,3.000000,,2013-06-14 10:22:00,
2013-06-14 02:52:00,47.0,44.0,-100.00,NNE,25,0.0,3.0,89,0.00,,,0.00,2.000000,,2013-06-14 10:52:00,
2013-06-14 03:52:00,43.0,38.0,-100.00,NNE,33,1.0,2.0,83,-99.99,,,-99.99,4.000000,,2013-06-14 11:52:00,
2013-06-14 04:01:00,43.0,38.0,-100.00,NNE,33,1.0,2.0,83,-99.99,,,-99.99,4.000000,,2013-06-14 12:01:00,
2013-06-14 04:11:00,43.0,38.0,-100.00,NNE,33,1.0,2.0,83,-99.99,,,-99.99,4.000000,,2013-06-14 12:11:00,
2013-06-14 04:22:00,43.0,38.0,-100.00,NNE,33,1.0,2.0,83,-99.99,,,-99.99,4.000000,,2013-06-14 12:22:00,
2013-06-14 04:52:00,42.0,42.0,-100.00,North,359,1.0,3.0,99,-99.99,,,0.00,10.000000,,2013-06-14 12:52:00,
2013-06-14 05:53:00,47.0,46.0,-100.00,NNE,30,3.0,3.0,95,-99.99,,,0.00,43.000000,,2013-06-14 13:53:00,
2013-06-14 06:02:00,47.0,46.0,-100.00,NNE,30,3.0,3.0,95,-99.99,,,0.00,43.000000,,2013-06-14 14:02:00,
2013-06-14 06:11:00,47.0,46.0,-100.00,NNE,30,3.0,3.0,95,-99.99,,,0.00,43.000000,,2013-06-14 14:11:00,
2013-06-14 06:22:00,47.0,46.0,-100.00,NNE,30,3.0,3.0,95,-99.99,,,0.00,43.000000,,2013-06-14 14:22:00,
2013-06-14 06:52:00,56.0,43.0,-100.00,SSW,212,1.0,5.0,61,0.00,,,0.00,130.000000,,2013-06-14 14:52:00,
2013-06-14 07:01:00,56.0,43.0,-100.00,SSW,212,1.0,5.0,61,0.00,,,0.00,130.000000,,2013-06-14 15:01:00,
2013-06-14 07:11:00,56.0,43.0,-100.00,SSW,212,1.0,5.0,61,0.00,,,0.00,130.000000,,2013-06-14 15:11:00,
2013-06-14 07:22:00,56.0,43.0,-100.00,SSW,212,1.0,5.0,61,0.00,,,0.00,130.000000,,2013-06-14 15:22:00,
2013-06-14 07:53:00,59.0,42.0,-100.00,SSE,155,3.0,6.0,54,0.00,,,0.00,221.000000,,2013-06-14 15:53:00,
2013-06-14 08:01:00,59.0,42.0,-100.00,SSE,155,3.0,6.0,54,0.00,,,0.00,221.000000,,2013-06-14 16:01:00,
2013-06-14 08:11:00,59.0,42.0,-100.00,SSE,155,3.0,6.0,54,0.00,,,0.00,221.000000,,2013-06-14 16:11:00,
2013-06-14 08:22:00,59.0,42.0,-100.00,SSE,155,3.0,6.0,54,0.00,,,0.00,221.000000,,2013-06-14 16:22:00,
2013-06-14 08:53:00,63.0,44.0,-100.00,East,86,5.0,7.0,49,0.00,,,0.00,323.000000,,2013-06-14 16:53:00,
2013-06-14 09:02:00,63.0,44.0,-100.00,East,86,5.0,7.0,49,0.00,,,0.00,323.000000,,2013-06-14 17:02:00,
2013-06-14 09:11:00,63.0,44.0,-100.00,East,86,5.0,7.0,49,0.00,,,0.00,323.000000,,2013-06-14 17:11:00,
2013-06-14 09:22:00,63.0,44.0,-100.00,East,86,5.0,7.0,49,0.00,,,0.00,323.000000,,2013-06-14 17:22:00,
2013-06-14 09:53:00,69.0,44.0,-100.00,SE,138,3.0,6.0,41,0.00,,,0.00,434.000000,,2013-06-14 17:53:00,
2013-06-14 10:02:00,69.0,44.0,-100.00,SE,138,3.0,6.0,41,0.00,,,0.00,434.000000,,2013-06-14 18:02:00,
2013-06-14 10:11:00,69.0,44.0,-100.00,SE,138,3.0,6.0,41,0.00,,,0.00,434.000000,,2013-06-14 18:11:00,
2013-06-14 10:21:00,69.0,44.0,-100.00,SE,138,3.0,6.0,41,0.00,,,0.00,434.000000,,2013-06-14 18:21:00,
2013-06-14 10:52:00,71.0,44.0,-100.00,WSW,253,3.0,6.0,38,0.00,,,0.00,538.000000,,2013-06-14 18:52:00,
2013-06-14 11:01:00,71.0,44.0,-100.00,WSW,253,3.0,6.0,38,0.00,,,0.00,538.000000,,2013-06-14 19:01:00,
2013-06-14 11:11:00,71.0,44.0,-100.00,WSW,253,3.0,6.0,38,0.00,,,0.00,538.000000,,2013-06-14 19:11:00,
2013-06-14 11:21:00,71.0,44.0,-100.00,WSW,253,3.0,6.0,38,0.00,,,0.00,538.000000,,2013-06-14 19:21:00,
2013-06-14 11:53:00,74.0,44.0,-100.00,WSW,244,4.0,6.0,34,0.00,,,0.00,633.000000,,2013-06-14 19:53:00,
2013-06-14 12:01:00,74.0,44.0,-100.00,WSW,244,4.0,6.0,34,0.00,,,0.00,633.000000,,2013-06-14 20:01:00,
2013-06-14 12:11:00,74.0,44.0,-100.00,WSW,244,4.0,6.0,34,0.00,,,0.00,633.000000,,2013-06-14 20:11:00,
2013-06-14 12:22:00,74.0,44.0,-100.00,WSW,244,4.0,6.0,34,0.00,,,0.00,633.000000,,2013-06-14 20:22:00,
2013-06-14 12:53:00,76.0,43.0,-100.00,SW,218,4.0,7.0,31,0.00,,,0.00,689.000000,,2013-06-14 20:53:00,
2013-06-14 13:02:00,76.0,43.0,-100.00,SW,218,4.0,7.0,31,0.00,,,0.00,689.000000,,2013-06-14 21:02:00,
2013-06-14 13:11:00,76.0,43.0,-100.00,SW,218,4.0,7.0,31,0.00,,,0.00,689.000000,,2013-06-14 21:11:00,
2013-06-14 13:22:00,76.0,43.0,-100.00,SW,218,4.0,7.0,31,0.00,,,0.00,689.000000,,2013-06-14 21:22:00,
2013-06-14 13:52:00,79.0,42.0,-100.00,SE,142,4.0,7.0,27,0.00,,,0.00,742.000000,,2013-06-14 21:52:00,
2013-06-14 14:01:00,79.0,42.0,-100.00,SE,142,4.0,7.0,27,0.00,,,0.00,742.000000,,2013-06-14 22:01:00,
2013-06-14 14:11:00,79.0,42.0,-100.00,SE,142,4.0,7.0,27,0.00,,,0.00,742.000000,,2013-06-14 22:11:00,
2013-06-14 14:22:00,79.0,42.0,-100.00,SE,142,4.0,7.0,27,0.00,,,0.00,742.000000,,2013-06-14 22:22:00,
2013-06-14 14:53:00,80.0,37.0,-100.00,SW,219,6.0,10.0,21,0.00,,,0.00,766.000000,,2013-06-14 22:53:00,
2013-06-14 15:01:00,80.0,37.0,-100.00,SW,219,6.0,10.0,21,0.00,,,0.00,766.000000,,2013-06-14 23:01:00,
2013-06-14 15:11:00,80.0,37.0,-100.00,SW,219,6.0,10.0,21,0.00,,,0.00,766.000000,,2013-06-14 23:11:00,
2013-06-14 15:22:00,80.0,37.0,-100.00,SW,219,6.0,10.0,21,0.00,,,0.00,766.000000,,2013-06-14 23:22:00,
2013-06-14 15:52:00,81.0,31.0,-100.00,North,1,3.0,9.0,16,0.00,,,-99.99,755.000000,,2013-06-14 23:52:00,
2013-06-14 16:01:00,81.0,31.0,-100.00,North,1,3.0,9.0,16,0.00,,,-99.99,755.000000,,2013-06-15 00:01:00,
2013-06-14 16:11:00,81.0,31.0,-100.00,North,1,3.0,9.0,16,0.00,,,-99.99,755.000000,,2013-06-15 00:11:00,
2013-06-14 16:22:00,81.0,31.0,-100.00,North,1,3.0,9.0,16,0.00,,,-99.99,755.000000,,2013-06-15 00:22:00,
2013-06-14 16:53:00,81.0,35.0,-100.00,West,260,4.0,8.0,19,0.00,,,0.00,702.000000,,2013-06-15 00:53:00,
2013-06-14 17:01:00,81.0,35.0,-100.00,West,260,4.0,8.0,19,0.00,,,0.00,702.000000,,2013-06-15 01:01:00,
2013-06-14 17:11:00,81.0,35.0,-100.00,West,260,4.0,8.0,19,0.00,,,0.00,702.000000,,2013-06-15 01:11:00,
2013-06-14 17:22:00,81.0,35.0,-100.00,West,260,4.0,8.0,19,0.00,,,0.00,702.000000,,2013-06-15 01:22:00,
2013-06-14 17:54:00,82.0,36.0,-100.00,West,261,6.0,10.0,19,0.00,,,0.00,613.000000,,2013-06-15 01:54:00,
2013-06-14 18:02:00,82.0,36.0,-100.00,West,261,6.0,10.0,19,0.00,,,0.00,613.000000,,2013-06-15 02:02:00,
2013-06-14 18:11:00,82.0,36.0,-100.00,West,261,6.0,10.0,19,0.00,,,0.00,613.000000,,2013-06-15 02:11:00,
2013-06-14 18:22:00,82.0,36.0,-100.00,West,261,6.0,10.0,19,0.00,,,0.00,613.000000,,2013-06-15 02:22:00,
2013-06-14 18:53:00,83.0,38.0,-100.00,SSW,206,4.0,10.0,20,0.00,,,0.00,530.000000,,2013-06-15 02:53:00,
2013-06-14 19:01:00,83.0,38.0,-100.00,SSW,206,4.0,10.0,20,0.00,,,0.00,530.000000,,2013-06-15 03:01:00,
2013-06-14 19:11:00,83.0,38.0,-100.00,SSW,206,4.0,10.0,20,0.00,,,0.00,530.000000,,2013-06-15 03:11:00,
2013-06-14 19:23:00,83.0,38.0,-100.00,SSW,206,4.0,10.0,20,0.00,,,0.00,530.000000,,2013-06-15 03:23:00,
2013-06-14 19:53:00,81.0,37.0,-100.00,WSW,250,7.0,10.0,21,0.00,,,0.00,427.000000,,2013-06-15 03:53:00,
2013-06-14 20:01:00,81.0,37.0,-100.00,WSW,250,7.0,10.0,21,0.00,,,0.00,427.000000,,2013-06-15 04:01:00,
2013-06-14 20:11:00,81.0,37.0,-100.00,WSW,250,7.0,10.0,21,0.00,,,0.00,427.000000,,2013-06-15 04:11:00,
2013-06-14 20:22:00,81.0,37.0,-100.00,WSW,250,7.0,10.0,21,0.00,,,0.00,427.000000,,2013-06-15 04:22:00,
2013-06-14 20:54:00,81.0,36.0,-100.00,WSW,253,5.0,13.0,20,0.00,,,0.00,321.000000,,2013-06-15 04:54:00,
2013-06-14 21:02:00,81.0,36.0,-100.00,WSW,253,5.0,13.0,20,0.00,,,0.00,321.000000,,2013-06-15 05:02:00,
2013-06-14 21:12:00,81.0,36.0,-100.00,WSW,253,5.0,13.0,20,0.00,,,0.00,321.000000,,2013-06-15 05:12:00,
2013-06-14 21:22:00,81.0,36.0,-100.00,WSW,253,5.0,13.0,20,0.00,,,0.00,321.000000,,2013-06-15 05:22:00,
2013-06-14 21:52:00,79.0,39.0,-100.00,WSW,256,4.0,8.0,24,0.00,,,0.00,214.000000,,2013-06-15 05:52:00,
2013-06-14 22:02:00,79.0,39.0,-100.00,WSW,256,4.0,8.0,24,0.00,,,0.00,214.000000,,2013-06-15 06:02:00,
2013-06-14 22:12:00,79.0,39.0,-100.00,WSW,256,4.0,8.0,24,0.00,,,0.00,214.000000,,2013-06-15 06:12:00,
2013-06-14 22:24:00,79.0,39.0,-100.00,WSW,256,4.0,8.0,24,0.00,,,0.00,214.000000,,2013-06-15 06:24:00,
2013-06-14 22:53:00,74.0,42.0,-100.00,West,275,2.0,5.0,32,0.00,,,0.00,113.000000,,2013-06-15 06:53:00,
2013-06-14 23:01:00,74.0,42.0,-100.00,West,275,2.0,5.0,32,0.00,,,0.00,113.000000,,2013-06-15 07:01:00,
2013-06-14 23:11:00,74.0,42.0,-100.00,West,275,2.0,5.0,32,0.00,,,0.00,113.000000,,2013-06-15 07:11:00,
2013-06-14 23:23:00,74.0,42.0,-100.00,West,275,2.0,5.0,32,0.00,,,0.00,113.000000,,2013-06-15 07:23:00,
2013-06-14 23:53:00,64.0,39.0,-100.00,ESE,108,2.0,4.0,39,0.00,,,0.00,37.000000,,2013-06-15 07:53:00,